Location: Osnabr�ck
(52.2670°N, 8.0500°E)
Time: 21:46:46
(UTC+02:00)

BlueWalker 3 - Visible Passes

Search period start: 08 June 2023 00:00
Search period end: 18 June 2023 00:00
Orbit: 494 x 513 km, 53.2° (Epoch: 08 June)

Date Brightness Start Highest point End Pass type
(mag) Time Alt. Az. Time Alt. Az. Time Alt. Az.
08 Jun 3.3 01:19:58 10° W 01:23:01 22° SW 01:23:06 22° SW visible
08 Jun 1.9 23:20:38 10° WNW 23:24:28 70° SSW 23:28:15 11° ESE visible
09 Jun 3.3 00:59:33 10° W 01:02:33 22° SW 01:02:55 21° SSW visible
09 Jun 1.9 23:00:11 10° WNW 23:04:02 69° SSW 23:07:52 10° ESE visible
10 Jun 3.4 00:39:07 10° W 00:42:06 21° SW 00:42:47 20° SSW visible
10 Jun 2.0 22:39:43 10° WNW 22:43:34 68° SSW 22:47:24 10° ESE visible
11 Jun 3.5 00:18:41 10° W 00:21:37 21° SW 00:22:42 19° SSW visible
11 Jun 3.6 23:58:14 10° W 00:01:08 20° SW 00:02:39 16° S visible
12 Jun 3.6 23:37:47 10° W 23:40:38 20° SW 23:42:39 14° S visible
13 Jun 3.7 23:17:18 10° W 23:20:07 19° SW 23:22:41 11° S visible
14 Jun 3.8 22:56:49 10° W 22:59:36 19° SW 23:02:23 10° S visible
